Date String (YYYY-MM-DD hh:mm:ss) UTC,Instrument flags,Ambient pressure (hPa),Sample flow (lpm),Bypass flow (lpm),Sample temperature (°C),Ambient temperature (°C),ASC tube jacket temperature (°C),LED temperature (°C),Box temperature (°C),Sample RH (%),Span deviation,Mass concentration (μg/m³),Mass concentration (μg/m³),Mass concentration (μg/m³)
DateTimeUTC,F1_M11,P_M11,Q1_M11,Q2_M11,T1_M11,T2_M11,T3_M11,T4_M11,T5_M11,U1_M11,ZSPAN_M11,X2_M11,X0_M11,X1_M11
2021-12-07 09:00:00,,0817.4,5.01,0.00,22.3,21.9,00.0,31.2,24.0,11.4,0000.0,0002.78,0010.74,0001.22
2021-12-07 09:01:00,,0817.5,5.00,0.00,22.2,21.8,00.0,31.2,23.9,11.6,0000.0,0002.38,0008.66,0001.04
2021-12-07 09:02:00,,0817.6,4.98,0.00,22.2,21.7,00.0,31.2,23.9,11.6,0000.0,0001.95,0007.80,0000.88
2021-12-07 09:03:00,,0817.7,5.01,0.00,22.2,21.6,00.0,31.2,23.9,11.4,0000.0,0001.70,0007.42,0000.74
2021-12-07 09:04:00,,0817.8,4.99,0.00,22.2,21.5,00.0,31.2,23.8,10.8,0000.0,0001.53,0007.00,0000.67
2021-12-07 09:05:00,,0817.8,5.01,0.00,22.1,21.5,00.0,31.2,23.8,10.5,0000.0,0001.49,0007.06,0000.64
2021-12-07 09:06:00,,0817.8,4.99,0.00,22.1,21.4,00.0,31.2,23.8,10.7,0000.0,0001.53,0007.57,0000.65
2021-12-07 09:07:00,,0817.8,5.01,0.00,22.1,21.4,00.0,31.2,23.7,10.7,0000.0,0001.55,0007.65,0000.66
2021-12-07 09:08:00,,0817.7,5.00,0.00,22.1,21.4,00.0,31.1,23.7,10.9,0000.0,0001.58,0007.65,0000.67
2021-12-07 09:09:00,,0817.6,5.00,0.00,22.0,21.3,00.0,31.1,23.7,10.6,0000.0,0001.67,0007.70,0000.70
2021-12-07 09:10:00,,0817.6,4.99,0.00,22.0,21.3,00.0,31.1,23.6,10.9,0000.0,0001.68,0007.48,0000.72
2021-12-07 09:11:00,,0817.5,5.01,0.00,22.0,21.2,00.0,31.1,23.6,11.1,0000.0,0001.70,0007.50,0000.72
2021-12-07 09:12:00,,0817.4,4.99,0.00,21.9,21.1,00.0,31.1,23.5,11.3,0000.0,0001.65,0006.88,0000.72
2021-12-07 09:13:00,,0817.4,5.01,0.00,21.9,21.1,00.0,31.1,23.5,11.4,0000.0,0001.67,0006.52,0000.72
2021-12-07 09:14:00,,0817.3,4.98,0.00,21.9,21.1,00.0,31.0,23.4,11.4,0000.0,0001.64,0006.32,0000.73
2021-12-07 09:15:00,,0817.3,5.00,0.00,21.9,21.6,00.0,31.0,23.6,11.3,0000.0,0001.56,0004.91,0000.70
2021-12-07 09:16:00,,0817.3,5.00,0.00,22.1,22.5,00.0,31.1,23.9,11.2,0000.0,0001.47,0004.18,0000.65
2021-12-07 09:17:00,,0817.3,5.01,0.00,22.2,23.2,00.0,31.1,24.2,11.1,0000.0,0001.41,0003.67,0000.62
2021-12-07 09:18:00,,0817.3,5.00,0.00,22.3,23.0,00.0,31.2,24.2,10.9,0000.0,0001.33,0004.20,0000.60
2021-12-07 09:19:00,,0817.3,5.00,0.00,22.3,22.7,00.0,31.2,24.2,10.9,0000.0,0001.32,0004.13,0000.60
2021-12-07 09:20:00,,0817.2,4.99,0.00,22.3,22.5,00.0,31.2,24.1,10.9,0000.0,0001.26,0003.77,0000.57
2021-12-07 09:21:00,,0817.3,5.00,0.00,22.3,22.3,00.0,31.2,24.0,10.9,0000.0,0001.28,0003.80,0000.56
2021-12-07 09:22:00,,0817.3,4.99,0.00,22.3,22.1,00.0,31.2,24.0,11.1,0000.0,0001.32,0003.87,0000.57
2021-12-07 09:23:00,,0817.3,5.01,0.00,22.2,21.9,00.0,31.2,23.9,11.0,0000.0,0001.32,0003.89,0000.58
2021-12-07 09:24:00,,0817.4,5.00,0.00,22.2,21.8,00.0,31.2,23.9,11.0,0000.0,0001.32,0003.91,0000.59
2021-12-07 09:25:00,,0817.4,4.99,0.00,22.2,21.8,00.0,31.2,23.9,10.8,0000.0,0001.38,0004.35,0000.62
2021-12-07 09:26:00,,0817.3,5.02,0.00,22.2,21.7,00.0,31.2,23.9,10.5,0000.0,0001.51,0005.16,0000.68
2021-12-07 09:27:00,,0817.4,4.98,0.00,22.1,21.6,00.0,31.2,23.8,10.4,0000.0,0001.62,0005.97,0000.76
2021-12-07 09:28:00,,0817.3,5.02,0.00,22.1,21.5,00.0,31.2,23.8,10.6,0000.0,0001.75,0006.25,0000.80
2021-12-07 09:29:00,,0817.4,5.00,0.00,22.1,21.4,00.0,31.2,23.7,10.4,0000.0,0001.86,0005.85,0000.85
2021-12-07 09:30:00,,0817.4,4.99,0.00,22.0,21.4,00.0,31.2,23.7,10.2,0000.0,0002.02,0006.71,0000.92
2021-12-07 09:31:00,,0817.4,5.00,0.00,22.0,21.3,00.0,31.1,23.6,10.2,0000.0,0002.11,0007.44,0000.97
2021-12-07 09:32:00,,0817.4,5.01,0.00,21.9,21.2,00.0,31.1,23.5,10.2,0000.0,0002.28,0009.12,0001.05
2021-12-07 09:33:00,,0817.4,4.99,0.00,21.9,21.2,00.0,31.1,23.5,10.0,0000.0,0002.44,0009.68,0001.14
2021-12-07 09:34:00,,0817.5,5.00,0.00,21.9,21.1,00.0,31.1,23.5,09.9,0000.0,0002.76,0010.04,0001.32
2021-12-07 09:35:00,,0817.5,5.00,0.00,21.9,21.2,00.0,31.1,23.6,10.2,0000.0,0003.06,0011.27,0001.45
2021-12-07 09:36:00,,0817.5,5.00,0.00,21.9,21.2,00.0,31.0,23.6,10.4,0000.0,0003.16,0011.67,0001.52
2021-12-07 09:37:00,,0817.5,5.00,0.00,21.9,21.2,00.0,31.0,23.6,10.0,0000.0,0003.26,0012.62,0001.61
2021-12-07 09:38:00,,0817.6,4.99,0.00,21.9,21.2,00.0,31.0,23.6,10.3,0000.0,0003.38,0012.80,0001.70
2021-12-07 09:39:00,,0817.5,4.99,0.00,21.9,21.2,00.0,31.0,23.6,10.1,0000.0,0003.52,0013.60,0001.83
2021-12-07 09:40:00,,0817.4,5.01,0.00,21.9,21.3,00.0,31.0,23.6,10.5,0000.0,0003.64,0014.44,0001.94
2021-12-07 09:41:00,,0817.4,4.99,0.00,22.0,22.0,00.0,31.0,23.8,11.3,0000.0,0003.56,0014.01,0001.86
2021-12-07 09:42:00,,0817.4,5.00,0.00,22.1,22.9,00.0,31.1,24.1,11.4,0000.0,0003.47,0013.44,0001.78
2021-12-07 09:43:00,,0817.3,5.00,0.00,22.3,23.2,00.0,31.1,24.3,11.4,0000.0,0003.32,0012.49,0001.68
2021-12-07 09:44:00,,0817.2,5.00,0.00,22.3,22.9,00.0,31.2,24.2,11.4,0000.0,0003.16,0012.84,0001.55
2021-12-07 09:45:00,,0817.3,4.99,0.00,22.3,22.6,00.0,31.2,24.1,11.5,0000.0,0002.87,0012.47,0001.35
2021-12-07 09:46:00,,0817.3,5.00,0.00,22.3,22.4,00.0,31.2,24.1,11.5,0000.0,0002.54,0011.20,0001.20
2021-12-07 09:47:00,,0817.3,5.01,0.00,22.3,22.2,00.0,31.2,24.0,11.5,0000.0,0002.33,0010.59,0001.09
2021-12-07 09:48:00,,0817.3,5.00,0.00,22.2,22.0,00.0,31.2,24.0,11.6,0000.0,0001.98,0009.07,0000.92
2021-12-07 09:49:00,,0817.3,4.99,0.00,22.2,21.9,00.0,31.2,23.9,11.6,0000.0,0001.67,0008.47,0000.77
2021-12-07 09:50:00,,0817.2,5.01,0.00,22.2,21.7,00.0,31.2,23.9,11.5,0000.0,0001.25,0007.60,0000.59
2021-12-07 09:51:00,,0817.2,4.99,0.00,22.2,21.6,00.0,31.2,23.9,11.6,0000.0,0000.89,0005.98,0000.39
2021-12-07 09:52:00,,0817.1,5.00,0.00,22.1,21.5,00.0,31.2,23.8,11.6,0000.0,0000.82,0007.21,0000.35
2021-12-07 09:53:00,,0817.1,5.00,0.00,22.1,21.4,00.0,31.2,23.8,11.7,0000.0,0000.83,0008.17,0000.36
2021-12-07 09:54:00,,0817.3,5.02,0.00,22.1,21.4,00.0,31.2,23.7,11.7,0000.0,0000.85,0007.74,0000.36
2021-12-07 09:55:00,,0817.2,4.99,0.00,22.1,21.3,00.0,31.2,23.7,11.7,0000.0,0000.86,0005.78,0000.37
2021-12-07 09:56:00,,0817.1,5.01,0.00,22.0,21.3,00.0,31.1,23.7,11.7,0000.0,0000.86,0005.76,0000.36
2021-12-07 09:57:00,,0817.1,4.99,0.00,22.0,21.2,00.0,31.1,23.7,11.7,0000.0,0000.88,0005.85,0000.35
2021-12-07 09:58:00,,0817.1,5.01,0.00,22.0,21.2,00.0,31.1,23.7,11.7,0000.0,0000.89,0005.90,0000.35
2021-12-07 09:59:00,,0817.1,5.00,0.00,22.0,21.2,00.0,31.1,23.7,11.7,0000.0,0000.89,0005.99,0000.35
